Location: Amsterdam
(30.7274°N, 84.4357°W)
Time: 18:49:14
(UTC+00:00)

Altair - Pass Details

Date: 14 August 2024
Orbit: 1501 x 1682 km, 47.2° (Epoch: 07 September)

Event Time Altitude Azimuth Distance (km) Brightness Sun altitude
Rises 21:01:20 0° 305° (NW) 4,815 10.6 41.5°
Reaches altitude 10° 21:04:55 10° 314° (NW) 3,800 10.1 40.7°
Maximum altitude 21:13:30 35° 17° (NNE) 2,311 8.6 38.9°
Drops below altitude 10° 21:21:48 10° 81° (E) 3,680 9.1 37.1°
Sets 21:25:11 0° 90° (E) 4,646 9.5 36.4°
